Theta_e
290 290 292 293 295 296 297 297 297 298 298 298 298 298 298 298 298 297 297 297 297 300 302 300 298 296 295 295 294 294 293 292 292 292 294 294 295 297
289 289 291 292 293 295 296 297 297 297 297 298 297 297 297 298 298 299 297 297 297 297 297 297 296 295 294 294 293 292 292 292 291 293 294 294 297 299
286 289 290 292 293 293 295 296 296 296 296 297 297 297 297 297 297 297 296 296 296 296 295 296 295 294 293 292 292 292 292 292 291 293 293 297 299 300
286 288 290 291 292 292 293 294 295 296 296 296 296 297 297 297 296 296 296 295 295 295 296 294 294 293 293 292 292 291 291 291 292 292 297 298 299 300
284 286 289 291 292 292 292 293 293 294 295 295 295 296 296 296 295 295 294 294 294 295 295 294 293 293 292 292 291 291 291 291 292 294 297 298 299 297
284 284 286 290 291 292 292 293 293 294 294 295 295 295 295 295 294 294 294 293 293 294 295 294 293 292 292 292 291 291 290 291 292 297 298 298 297 297
284 284 284 285 291 291 291 292 293 293 294 294 294 294 294 294 294 293 293 293 293 293 294 294 292 292 292 292 291 290 290 291 295 297 298 297 296 298
284 285 284 284 286 292 291 291 292 293 294 294 294 293 294 294 293 293 292 292 291 291 292 292 291 292 292 291 290 290 291 292 297 298 297 296 297 297
284 284 284 284 285 288 291 291 291 292 292 293 293 293 293 293 293 292 292 291 290 290 291 291 291 291 291 291 290 290 291 295 297 297 296 297 297 296
283 284 284 284 284 286 289 291 291 291 292 292 292 292 292 292 292 292 291 291 290 290 290 290 290 289 289 290 289 290 291 296 297 296 296 296 297 295
282 283 284 284 284 285 289 290 291 290 291 291 291 290 290 289 289 290 290 289 290 290 291 290 288 288 288 288 289 290 294 296 296 296 296 296 295 294
281 282 283 284 284 285 288 289 291 290 290 291 291 290 290 289 289 289 289 290 289 289 290 289 287 288 286 288 289 292 293 295 295 296 296 295 295 293
281 282 283 284 284 284 287 288 289 290 289 290 290 291 290 289 288 288 289 288 289 289 290 289 289 290 287 288 291 293 294 294 296 296 295 294 294 293
279 280 281 283 284 284 285 288 289 290 290 290 290 290 290 289 288 288 288 288 289 290 290 291 291 288 288 289 291 293 294 295 295 295 295 294 294 292
277 279 280 282 283 283 284 287 289 289 289 289 289 289 289 289 288 287 288 288 289 289 290 290 290 288 288 291 292 293 295 295 295 295 295 294 293 292
276 278 279 281 283 283 283 286 287 288 288 288 288 288 288 289 288 288 288 289 289 288 287 287 288 288 289 288 292 293 295 294 295 295 294 292 292 291
276 277 278 281 283 283 283 283 285 286 287 287 287 288 288 288 288 287 287 288 288 288 286 287 287 288 290 289 291 293 295 295 294 294 294 293 292 290
275 277 278 280 282 283 283 283 283 284 285 286 286 287 287 287 287 287 287 288 287 286 286 286 286 287 290 291 292 293 294 294 294 294 293 292 290 289
274 275 277 278 280 282 282 283 282 283 283 284 285 286 286 287 287 287 286 287 288 286 286 287 287 287 291 291 292 293 294 293 293 293 292 291 289 288
273 274 275 276 279 281 282 282 282 282 283 283 283 285 285 286 287 287 287 286 288 288 287 287 287 287 290 292 292 292 293 292 292 291 290 290 289 288
273 273 274 275 277 279 281 281 282 283 283 283 283 283 285 285 286 286 286 286 286 288 288 289 288 287 288 292 293 292 291 291 290 291 290 289 288 288
273 273 273 274 275 277 279 280 281 282 282 283 283 282 283 285 285 286 286 286 286 288 287 288 287 287 288 292 293 292 291 291 291 291 290 290 289 287
273 273 273 273 274 275 276 278 280 282 282 282 282 282 282 284 284 285 286 286 285 287 287 286 286 286 288 292 292 292 291 291 291 290 288 288 288 289
Wind_Speed
23 27 29 25 12 6 5 9 8 5 5 7 9 12 14 12 9 6 6 8 8 11 15 17 16 8 6 5 4 4 6 8 11 13 15 18 19 20
21 24 28 29 20 8 7 8 5 12 5 5 5 8 11 14 14 12 7 6 4 4 7 7 6 8 6 4 3 3 5 8 11 12 15 16 17 17
22 21 24 29 27 18 8 6 7 7 10 7 7 8 8 9 10 9 8 7 5 2 2 3 7 8 5 3 2 2 6 9 11 13 15 14 15 16
25 21 22 27 28 26 16 7 7 9 12 14 15 12 11 11 11 10 9 7 5 4 3 4 8 7 5 2 1 4 8 10 11 13 12 13 14 17
24 23 20 22 28 29 22 14 5 4 5 5 7 8 10 11 11 12 10 10 8 6 3 3 7 6 3 1 2 4 9 10 11 11 11 12 15 21
21 23 22 19 23 27 25 16 9 4 3 3 4 4 5 6 8 8 9 8 6 5 3 4 6 5 4 2 2 5 8 11 11 9 9 13 17 22
17 20 22 21 14 22 23 20 14 9 4 1 1 2 3 3 4 6 7 4 4 4 4 6 8 8 6 3 1 7 8 10 8 8 10 14 20 22
15 17 21 22 20 16 21 19 17 14 10 6 5 4 5 4 3 4 5 5 6 6 7 8 9 9 6 3 5 7 7 8 8 8 12 16 20 19
14 16 18 22 24 17 19 20 17 16 13 10 7 6 4 3 2 3 3 4 6 9 10 9 11 10 8 6 5 6 8 8 9 10 12 16 19 19
13 13 15 19 22 22 15 18 20 17 16 13 10 9 7 5 2 1 2 3 6 9 11 9 12 11 9 7 7 7 7 9 9 11 13 15 17 19
12 11 12 15 18 20 17 13 19 17 15 14 12 9 8 6 3 3 5 3 7 9 10 13 15 15 11 9 8 7 7 10 13 13 13 14 13 14
10 10 10 11 14 17 16 16 14 17 15 13 13 13 13 11 7 4 5 4 7 7 10 15 19 16 8 11 10 10 13 14 14 12 12 13 13 15
11 10 10 8 10 14 13 13 14 13 14 14 14 15 14 13 10 7 7 7 4 7 11 17 14 10 11 12 13 16 14 15 13 12 11 15 15 17
10 9 9 8 8 11 12 12 10 11 14 14 14 16 15 13 12 9 9 8 8 10 9 11 10 16 18 16 15 15 16 15 12 12 12 13 15 20
10 8 7 6 5 8 10 9 10 12 11 14 15 15 15 13 11 10 11 12 11 14 14 13 13 14 13 15 20 18 18 15 12 11 11 11 15 18
10 6 2 2 4 6 7 9 11 12 13 15 15 14 14 14 11 10 9 11 11 15 16 17 14 12 13 15 17 18 14 11 11 9 12 13 16 19
8 1 3 4 3 4 7 10 11 10 12 14 13 14 14 15 14 10 9 10 12 14 14 16 15 13 16 17 15 15 15 13 10 8 9 12 17 18
11 5 5 4 4 5 6 9 13 13 12 12 14 13 14 15 15 13 10 9 11 14 14 15 16 15 17 19 17 15 14 12 9 7 9 11 17 19
11 7 5 4 4 4 5 7 12 13 12 12 12 13 13 13 15 14 12 9 8 10 11 11 9 10 15 19 17 14 15 13 10 8 10 13 17 20
13 10 6 4 3 3 4 4 9 10 10 12 12 12 13 14 13 14 13 9 8 8 8 8 6 10 14 18 18 17 16 12 9 12 13 13 17 19
15 11 9 4 3 2 2 2 5 7 8 10 13 13 12 14 14 12 12 11 7 7 8 8 8 7 9 17 18 18 16 13 12 11 11 12 15 17
19 14 10 7 3 1 2 1 0 3 5 6 9 12 11 12 13 11 10 11 9 7 7 9 10 11 13 16 17 17 18 14 11 8 8 4 4 13
18 17 13 10 6 2 2 2 2 2 2 3 5 8 11 9 10 11 11 10 9 5 7 10 10 9 10 16 15 17 17 14 13 13 17 16 17 20
Wind_Direction
16 9 12 10 356 305 304 290 278 278 296 265 240 233 229 231 233 233 239 247 238 223 241 258 262 241 241 242 271 292 315 333 338 343 345 345 347 348
16 15 8 13 14 356 305 283 274 260 264 289 262 252 237 231 232 235 229 240 230 233 238 240 228 210 216 227 239 286 323 340 344 351 350 355 354 357
17 19 9 8 15 14 347 312 256 271 250 273 270 253 230 227 224 218 214 210 229 274 300 219 203 200 194 199 212 302 341 349 354 1 2 3 1 1
18 15 16 5 11 14 11 332 276 271 278 277 270 255 247 240 233 233 230 239 245 259 273 217 208 200 183 184 277 353 359 357 7 8 13 10 8 4
17 20 13 9 8 11 13 2 350 303 272 260 257 242 237 237 233 236 238 244 252 257 264 222 211 195 161 171 5 356 6 4 14 17 24 18 16 16
19 23 19 13 8 8 16 19 21 358 304 243 238 242 227 226 224 229 230 231 231 233 221 218 193 165 164 130 15 15 12 18 18 29 31 30 23 19
15 18 26 23 15 12 15 19 24 32 43 78 147 178 153 148 182 190 188 190 178 172 168 182 174 161 161 131 62 32 25 29 38 51 44 35 28 24
6 13 16 23 26 19 20 24 25 34 46 62 87 107 115 125 153 169 174 170 132 133 149 156 160 164 146 149 75 44 39 41 60 63 56 37 28 25
358 4 14 16 24 27 18 25 25 35 43 49 66 81 90 101 156 166 145 157 155 149 149 139 151 149 141 110 80 52 39 62 78 77 62 40 26 28
348 0 4 12 25 25 19 12 22 27 38 43 48 57 63 57 70 170 154 134 147 152 157 134 140 133 125 110 84 52 40 79 87 85 62 43 33 31
341 1 360 8 22 24 26 26 13 30 32 37 39 46 52 47 70 147 144 105 128 143 157 139 138 125 111 101 86 65 61 91 95 80 61 43 41 35
339 357 1 7 24 25 26 28 20 20 28 32 39 46 50 52 74 106 127 161 138 128 145 144 142 121 103 91 85 77 83 93 101 80 58 59 53 44
337 342 1 13 29 28 26 26 24 22 24 29 38 48 50 56 65 73 85 92 125 147 151 154 157 148 128 114 91 90 97 107 99 82 68 65 52 50
334 334 359 11 30 28 30 33 34 37 29 31 37 46 47 55 56 65 72 65 96 116 126 150 142 143 134 118 107 105 110 107 90 72 60 63 50 50
321 325 352 8 26 36 39 42 45 51 33 35 38 37 41 46 42 49 63 60 84 97 103 112 124 129 140 123 121 118 117 109 96 69 55 50 60 59
309 305 318 14 46 40 51 59 53 49 45 41 39 39 36 40 49 44 54 73 91 100 104 107 110 109 127 139 122 125 122 114 99 71 55 50 59 55
19 66 129 148 127 97 71 69 72 67 58 45 39 39 37 38 44 53 69 84 100 103 110 107 105 111 114 125 135 131 123 112 102 83 57 60 66 61
17 60 80 97 86 75 69 66 66 60 54 46 42 38 37 38 40 46 65 97 111 116 118 113 112 116 119 115 125 130 128 119 111 80 67 63 72 69
18 40 74 76 78 74 63 55 62 56 46 40 46 39 38 41 41 44 49 81 117 134 131 123 118 133 135 127 131 132 128 125 119 92 70 68 75 74
27 34 42 77 92 87 71 64 71 75 61 44 47 47 40 41 41 38 40 59 98 137 145 134 117 123 144 139 138 135 132 127 100 82 72 68 82 85
27 27 29 40 84 119 89 34 57 67 64 48 43 45 41 41 42 36 36 48 85 119 134 130 131 134 147 149 146 140 136 121 100 81 67 76 95 90
30 26 25 22 18 100 180 181 80 85 79 62 49 44 42 44 37 35 33 49 69 106 127 128 133 133 145 154 152 148 139 129 119 85 58 80 123 100
32 32 25 19 14 319 250 221 219 204 109 91 62 49 47 52 46 34 37 48 62 98 127 124 132 125 139 154 159 150 143 137 121 108 93 92 100 97